Погода в Венеции

Россия / Республика Башкортостан     55°30′13″N   54°53′47″E
темп.,
°C
ветер,
м/с
пор.,
м/с
влажн.,
%
обл.,
%
осадки,
мм/ч
давл.,
гПа
погр.,
м
22 октября, пт
пт2223:00+1юз71598100 10.8 1001699
02:00+2юз613100100 0.9 1000457
05:00+4зюз513100100 1.3 1001360
08:00+5юз511100100 0.0 1002244
11:00+6ююз61399100 0.1 1002358
14:00+9юз71487100 0.3 1001690
17:00+10юз81581100 0.3 1001762
20:00+9юз81677100 0.0 1002687
23 октября, сб
сб2323:00+9юз81678100 0.0 1003726
02:00+9зюз7158242 0.0 1004588
05:00+10зюз81374100 0.0 1005816
08:00+8зюз713840 0.0 1007479
11:00+9юз7128015 0.1 10081054
14:00+11зюз814575 0.1 10091800
17:00+10зюз611605 0.2 1010947
20:00+8зюз5116695 0.1 1012346
24 октября, вс
вс2423:00+7ююз41077100 0.1 1012204
02:00+7ююз4117682 0.0 1012282
05:00+7ю4793100 1.5 1010211
08:00+6всв1198100 5.0 100766
11:00+6сз3693100 8.1 1007332
14:00+8з587354 0.2 1009990
17:00+8з596436 0.4 1010501
20:00+5зюз4107743 0.0 1012349
25 октября, пн
пн2523:00+6з4867100 0.0 1013415
02:00+5з5971100 0.1 1013498
05:00+2зюз37815 0.1 1014153
08:00+2зюз23788 0.0 101546
11:00+5ююз356397 0.0 1015275
14:00+6юз576182 0.2 10141299
17:00+5з6866100 0.4 1014959
20:000сз81394100 0.9 1016839
26 октября, вт
вт2623:000сз8127893 1.2 10191009
02:00−2сз712805 0.0 1021697
05:00−2сз6118390 0.0 1023674
08:00−1сз6969100 0.0 1025922
11:00−1сз676494 0.0 1026941
14:00+1з57565 0.0 1025971
17:00+1зюз485881 0.0 1024638
20:00+1зюз6116388 0.0 1024884